Weather History for Whiteman AFB, MO

Change the Weather History Date:

Monday, May 14, 2012

  Actual Average Record
Temperature  
Mean Temperature 63 °F -  
Max Temperature 77 °F 73 °F 89 °F (2013)
Min Temperature 50 °F 53 °F 41 °F (2000)
Degree Days  
Heating Degree Days 2    
Growing Degree Days 13 (Base 50)    
Moisture  
Dew Point 51 °F    
Average Humidity 66    
Maximum Humidity 99    
Minimum Humidity 36    
Precipitation  
Precipitation 0.00 in - - ()
Sea Level Pressure  
Sea Level Pressure 30.11 in    
Wind  
Wind Speed 1 mph (WSW)    
Max Wind Speed 7 mph    
Max Gust Speed -    
Visibility 10 miles    
Events      
Averages and records for this station are not official NWS values.
T = Trace of Precipitation, MM = Missing Value Source: NWS Daily Summary

Daily Weather History Graph

Daily Weather History Graph

Search for Another Location

Airport:

Trip Planner

Search our weather history database for the weather conditions in past years. The results will help you decide how hot, cold, wet, or windy it might be!

Date:

Astronomy

May. 14, 2012 Rise Set
Actual Time 6:02 AM CDT 8:19 PM CDT
Civil Twilight 5:32 AM CDT 8:49 PM CDT
Nautical Twilight 4:55 AM CDT 9:25 PM CDT
Astronomical Twilight 4:15 AM CDT 10:06 PM CDT
Moon 2:33 AM CDT (5/14) 2:43 PM CDT (5/14)
Length of Visible Light 15h 16m
Length of Day
14h 16m
Waning Crescent, 32% of the Moon is Illuminated
May 14
Waning Crescent
May 20
New
May 28
First Quarter
Jun 4
Full
Jun 11
Last Quarter

Hourly Weather History & Observations

Time (CDT) Temp. Dew Point Humidity Pressure Visibility Wind Dir Wind Speed Gust Speed Precip Events Conditions
12:55 AM 56.1 °F 50.5 °F 82% 30.15 in 10.0 mi Calm Calm - N/A   Clear
1:55 AM 55.2 °F 51.3 °F 87% 30.14 in 10.0 mi Calm Calm - N/A   Clear
2:55 AM 54.9 °F 51.6 °F 89% 30.13 in 10.0 mi Calm Calm - N/A   Clear
3:55 AM 53.1 °F 51.1 °F 93% 30.13 in 10.0 mi Calm Calm - N/A   Clear
4:55 AM 51.8 °F 51.4 °F 99% 30.13 in 10.0 mi Calm Calm - N/A   Clear
5:55 AM 51.8 °F 51.4 °F 99% 30.14 in 10.0 mi Calm Calm - N/A   Clear
6:55 AM 50.5 °F 50.4 °F 99% 30.15 in 10.0 mi Calm Calm - N/A   Clear
7:55 AM 57.9 °F 53.4 °F 85% 30.17 in 6.0 mi Calm Calm - N/A   Haze
8:55 AM 63.3 °F 52.9 °F 69% 30.17 in 10.0 mi North 3.5 mph - N/A   Clear
9:55 AM 67.6 °F 53.1 °F 59% 30.17 in 10.0 mi Calm Calm - N/A   Clear
10:55 AM 70.5 °F 50.0 °F 48% 30.17 in 10.0 mi Calm Calm - N/A   Clear
11:55 AM 72.5 °F 49.1 °F 44% 30.17 in 10.0 mi Variable 3.5 mph - N/A   Scattered Clouds
12:55 PM 73.9 °F 48.0 °F 40% 30.15 in 10.0 mi Calm Calm - N/A   Partly Cloudy
1:55 PM 74.8 °F 47.1 °F 37% 30.12 in 9.0 mi Calm Calm - N/A   Clear
2:55 PM 75.9 °F 47.3 °F 36% 30.09 in 10.0 mi Variable 6.9 mph - N/A   Partly Cloudy
3:55 PM 75.9 °F 50.0 °F 40% 30.07 in 10.0 mi NW 4.6 mph - N/A   Scattered Clouds
4:55 PM 75.6 °F 50.9 °F 42% 30.06 in 10.0 mi Calm Calm - N/A   Scattered Clouds
5:55 PM 76.5 °F 48.0 °F 37% 30.06 in 10.0 mi SW 3.5 mph - N/A   Clear
6:55 PM 73.9 °F 54.5 °F 51% 30.05 in 10.0 mi WSW 3.5 mph - N/A   Clear
7:55 PM 72.1 °F 47.5 °F 41% 30.05 in 10.0 mi WSW 4.6 mph - N/A   Clear
8:55 PM 64.8 °F 51.6 °F 62% 30.05 in 10.0 mi SSW 3.5 mph - N/A   Clear
9:55 PM 63.7 °F 51.6 °F 65% 30.06 in 10.0 mi Calm Calm - N/A   Clear
10:55 PM 59.2 °F 53.6 °F 82% 30.07 in 10.0 mi Calm Calm - N/A   Clear
11:55 PM 56.3 °F 52.2 °F 86% 30.07 in 10.0 mi South 3.5 mph - N/A   Clear